Regional Weather Roundup
Issued by NWS

Home | Current Version | Previous Version | Text Only | Print | Product List | Glossary Off
Versions: 1 2 3 4 5 6 7 8 9 10 11 12 13 14 15 16 17 18 19 20 21 22 23 24 25 26 27 28 29 30 31 32 33 34 35 36 37 38 39 40 41 42 43 44 45 46 47 48 49 50

000
ASUS43 KFSD 260902
RWRSD

WEATHER ROUNDUP FOR SOUTH DAKOTA
NATIONAL WEATHER SERVICE SIOUX FALLS SD
400 AM CDT THU APR 26 2018

NOTE: "FAIR" INDICATES FEW OR NO CLOUDS BELOW 12,000 FEET WITH NO
SIGNIFICANT WEATHER AND/OR OBSTRUCTIONS TO VISIBILITY.


SDZ001>005-009-010-012>017-261000-
NORTHWEST AND NORTH CENTRAL SOUTH DAKOTA

CITY           SKY/WX    TMP DP  RH WIND       PRES   REMARKS
BUFFALO          N/A     41  31  67 NW10      30.05R
FAITH            N/A     44  36  73 N20       30.03R
MOBRIDGE       CLEAR     48  33  56 N21G28    29.94R
$$

SDZ012>016-024>037-041>051-057-063-072>074-261000-
SOUTHWEST AND SOUTH CENTRAL SOUTH DAKOTA

CITY           SKY/WX    TMP DP  RH WIND       PRES   REMARKS
RAPID CTY ARPT PTCLDY    47  32  56 N24G31    30.06R
PIERRE         CLOUDY    51  36  56 N24G30    29.89R
CUSTER         PTCLDY    41  25  53 N9G18     30.10R
ELLSWORTH AFB  PTCLDY    47  33  56 NW21      30.06R
PHILIP         MOCLDY    50  35  56 N20G26    29.97R
PINE RIDGE     MOCLDY    52  32  46 N20G29    30.01R
SPEARFISH      CLOUDY    46  32  57 NW14G21   30.14R
WINNER         FAIR      49  32  52 W10       29.87R
$$

SDZ004>011-016>023-039-040-261000-
NORTHEAST SOUTH DAKOTA

CITY           SKY/WX    TMP DP  RH WIND       PRES   REMARKS
ABERDEEN       MOCLDY    42  36  79 W8        29.84R
WATERTOWN      CLOUDY    41  32  70 S9        29.81F
BROOKINGS      CLOUDY    43  33  68 S10       29.85F
SISSETON         N/A     48  33  56 SW17G29   29.76R
$$

SDZ017-020-022-023-036>040-048>070-261000-
SOUTHEAST SOUTH DAKOTA

CITY           SKY/WX    TMP DP  RH WIND       PRES   REMARKS
SIOUX FALLS    CLOUDY    45  31  58 S10       29.88F
HURON          CLOUDY    45  34  65 S8G20     29.81F
CHAMBERLAIN    MOCLDY    49  36  60 W8        29.84F
MITCHELL       CLOUDY    47  34  60 S12       29.85F
YANKTON        CLOUDY    44  32  62 SE5       29.91S
$$

ABBREVIATIONS USED IN REMARKS
   TC - TEMPERATURE IN CELSIUS
  WCI - WIND CHILL INDEX
   HX - HEAT INDEX
  VSB - VISIBILITY





USA.gov is the U.S. government's official web portal to all federal, state and local government web resources and services.